FEA YSNW-YSSY

Flight info

Callsign FEA
Flight time 0h 27m
Altitude 17500
Route DCT
Aircraft C700/L-SDE3L/L

Departure

Time 2026-05-07 08:04
Airport Naval Air Station Nowra - HMAS Albatross (YSNW)

Arrival

Time 2026-05-07 08:32
Airport Sydney Kingsford Smith International Airport (YSSY)
Time Latitude Longitude Altitude Speed Heading
2026-05-07 07:57 -34.94223 150.54698 361 ft 0 kts 172°
2026-05-07 08:01 -34.94225 150.54696 361 ft 2 kts 210°
2026-05-07 08:01 -34.94210 150.54686 365 ft 8 kts 355°
2026-05-07 08:01 -34.94118 150.54745 360 ft 25 kts 43°
2026-05-07 08:01 -34.93967 150.54925 362 ft 33 kts 43°
2026-05-07 08:02 -34.93875 150.55012 354 ft 6 kts
2026-05-07 08:02 -34.93870 150.55011 355 ft 0 kts 353°
2026-05-07 08:02 -34.93858 150.55009 357 ft 9 kts 351°
2026-05-07 08:02 -34.93820 150.54911 359 ft 17 kts 238°
2026-05-07 08:03 -34.93835 150.54890 360 ft 0 kts 223°
2026-05-07 08:03 -34.93837 150.54888 356 ft 4 kts 223°
2026-05-07 08:03 -34.94033 150.54656 366 ft 87 kts 224°
2026-05-07 08:04 -34.94667 150.53916 469 ft 151 kts 227°
2026-05-07 08:04 -34.95404 150.53032 1643 ft 152 kts 223°
2026-05-07 08:04 -34.96547 150.52731 2621 ft 195 kts 177°
2026-05-07 08:04 -34.97855 150.53615 3661 ft 241 kts 141°
2026-05-07 08:05 -34.98727 150.55552 4721 ft 287 kts 109°
2026-05-07 08:05 -34.98757 150.58144 5763 ft 327 kts 78°
2026-05-07 08:05 -34.97799 150.60781 6792 ft 352 kts 51°
2026-05-07 08:05 -34.96020 150.62806 7794 ft 349 kts 25°
2026-05-07 08:06 -34.93799 150.63774 8800 ft 333 kts
2026-05-07 08:06 -34.91520 150.63791 9869 ft 324 kts 348°
2026-05-07 08:06 -34.89287 150.63508 10852 ft 322 kts 345°
2026-05-07 08:06 -34.87075 150.63160 11837 ft 318 kts 343°
2026-05-07 08:07 -34.84891 150.62822 12860 ft 316 kts 345°
2026-05-07 08:07 -34.82621 150.63068 13883 ft 344 kts
2026-05-07 08:07 -34.80406 150.64415 14822 ft 365 kts 21°
2026-05-07 08:07 -34.78317 150.66207 15804 ft 371 kts 26°
2026-05-07 08:08 -34.76247 150.68138 16823 ft 377 kts 27°
2026-05-07 08:08 -34.74147 150.70135 17509 ft 395 kts 27°
2026-05-07 08:08 -34.71870 150.71978 17514 ft 394 kts 21°
2026-05-07 08:08 -34.69494 150.73604 17506 ft 382 kts 19°
2026-05-07 08:09 -34.67180 150.75069 17535 ft 379 kts 15°
2026-05-07 08:09 -34.64781 150.76411 17528 ft 379 kts 14°
2026-05-07 08:09 -34.62369 150.77661 17528 ft 375 kts 13°
2026-05-07 08:09 -34.59963 150.78866 17532 ft 374 kts 13°
2026-05-07 08:10 -34.57550 150.80059 17531 ft 374 kts 13°
2026-05-07 08:10 -34.56744 150.80456 17536 ft 375 kts 13°
2026-05-07 08:10 -34.54530 150.81546 17537 ft 375 kts 13°
2026-05-07 08:11 -34.52105 150.82738 17537 ft 376 kts 13°
2026-05-07 08:11 -34.49708 150.83914 17538 ft 376 kts 13°
2026-05-07 08:11 -34.47279 150.85104 17534 ft 378 kts 13°
2026-05-07 08:11 -34.44854 150.86455 17526 ft 390 kts 19°
2026-05-07 08:12 -34.42517 150.88141 17523 ft 387 kts 23°
2026-05-07 08:12 -34.40302 150.89902 17334 ft 373 kts 24°
2026-05-07 08:12 -34.38189 150.91646 16672 ft 362 kts 25°
2026-05-07 08:12 -34.36165 150.93352 16027 ft 348 kts 25°
2026-05-07 08:13 -34.34251 150.94998 15373 ft 304 kts 25°
2026-05-07 08:13 -34.32734 150.96391 14710 ft 249 kts 21°
2026-05-07 08:13 -34.31342 150.97398 13857 ft 221 kts 13°
2026-05-07 08:13 -34.30040 150.98235 12895 ft 204 kts 12°
2026-05-07 08:14 -34.28837 150.99002 11932 ft 194 kts 12°
2026-05-07 08:14 -34.27618 150.99744 11405 ft 202 kts 12°
2026-05-07 08:14 -34.26313 151.00492 10945 ft 214 kts 12°
2026-05-07 08:14 -34.24925 151.01251 10487 ft 223 kts 12°
2026-05-07 08:15 -34.23473 151.02013 10023 ft 231 kts 12°
2026-05-07 08:15 -34.21969 151.02772 9513 ft 238 kts 12°
2026-05-07 08:15 -34.20431 151.03533 8978 ft 227 kts 12°
2026-05-07 08:15 -34.18952 151.04271 8455 ft 235 kts 12°
2026-05-07 08:16 -34.17418 151.05015 7939 ft 239 kts 13°
2026-05-07 08:16 -34.15866 151.05724 7453 ft 243 kts 12°
2026-05-07 08:16 -34.14262 151.06439 6952 ft 239 kts 12°
2026-05-07 08:16 -34.12793 151.07112 6446 ft 228 kts 12°
2026-05-07 08:17 -34.11266 151.07789 5946 ft 239 kts 12°
2026-05-07 08:17 -34.09674 151.08479 5438 ft 247 kts 12°
2026-05-07 08:17 -34.08029 151.09178 5030 ft 249 kts 12°
2026-05-07 08:17 -34.06443 151.09848 5019 ft 234 kts 12°
2026-05-07 08:18 -34.04956 151.10496 5012 ft 221 kts 12°
2026-05-07 08:18 -34.03547 151.11128 5009 ft 211 kts 12°
2026-05-07 08:18 -34.02208 151.11744 5009 ft 201 kts 12°
2026-05-07 08:18 -34.00930 151.12336 4567 ft 193 kts 12°
2026-05-07 08:19 -33.99719 151.12963 3773 ft 189 kts 22°
2026-05-07 08:19 -33.98677 151.13924 3000 ft 192 kts 37°
2026-05-07 08:19 -33.97700 151.14985 2236 ft 185 kts 37°
2026-05-07 08:19 -33.96768 151.15965 1511 ft 170 kts 37°
2026-05-07 08:20 -33.95844 151.16771 928 ft 159 kts 31°
2026-05-07 08:20 -33.94961 151.17456 1003 ft 151 kts 31°
2026-05-07 08:20 -33.94064 151.18242 1036 ft 165 kts 31°
2026-05-07 08:20 -33.93000 151.18751 1035 ft 164 kts
2026-05-07 08:21 -33.91865 151.19007 1021 ft 167 kts 359°
2026-05-07 08:21 -33.90706 151.18964 1036 ft 167 kts 349°
2026-05-07 08:21 -33.89543 151.18820 1026 ft 167 kts 348°
2026-05-07 08:21 -33.88390 151.18702 1029 ft 165 kts 349°
2026-05-07 08:22 -33.87265 151.18569 1017 ft 164 kts 348°
2026-05-07 08:22 -33.86136 151.18433 1023 ft 164 kts 349°
2026-05-07 08:22 -33.85005 151.18310 1023 ft 162 kts 349°
2026-05-07 08:22 -33.83884 151.18180 1027 ft 162 kts 349°
2026-05-07 08:23 -33.82761 151.18025 1016 ft 163 kts 347°
2026-05-07 08:23 -33.81625 151.17879 1020 ft 165 kts 348°
2026-05-07 08:23 -33.80460 151.17751 1012 ft 174 kts 358°
2026-05-07 08:23 -33.79370 151.18411 1021 ft 183 kts 46°
2026-05-07 08:24 -33.78990 151.19825 1021 ft 180 kts 96°
2026-05-07 08:24 -33.79493 151.21139 1026 ft 171 kts 131°
2026-05-07 08:24 -33.80249 151.22205 1032 ft 171 kts 136°
2026-05-07 08:24 -33.81061 151.23273 1009 ft 176 kts 136°
2026-05-07 08:25 -33.81914 151.24337 1035 ft 179 kts 136°
2026-05-07 08:25 -33.82751 151.25390 1067 ft 170 kts 139°
2026-05-07 08:25 -33.83585 151.26469 1029 ft 177 kts 136°
2026-05-07 08:25 -33.84417 151.27572 1010 ft 178 kts 136°
2026-05-07 08:26 -33.86063 151.29753 924 ft 170 kts 137°
2026-05-07 08:26 -33.86899 151.30713 1006 ft 164 kts 154°
2026-05-07 08:26 -33.87933 151.31308 1024 ft 167 kts 161°
2026-05-07 08:27 -33.89010 151.31888 1035 ft 170 kts 163°
2026-05-07 08:27 -33.90136 151.32244 1029 ft 167 kts 177°
2026-05-07 08:27 -33.91279 151.32434 1029 ft 163 kts 182°
2026-05-07 08:27 -33.92292 151.32063 1018 ft 149 kts 225°
2026-05-07 08:28 -33.92848 151.31058 1035 ft 145 kts 252°
2026-05-07 08:28 -33.92892 151.29823 904 ft 180 kts 291°
2026-05-07 08:28 -33.91753 151.29274 1608 ft 234 kts 22°
2026-05-07 08:28 -33.90881 151.30797 2565 ft 218 kts 92°
2026-05-07 08:29 -33.91766 151.31832 2862 ft 175 kts 209°
2026-05-07 08:29 -33.91952 151.30699 1533 ft 157 kts 291°
2026-05-07 08:29 -33.91591 151.29587 1305 ft 161 kts 278°
2026-05-07 08:29 -33.91574 151.28004 1131 ft 189 kts 257°
2026-05-07 08:30 -33.91910 151.26641 1061 ft 151 kts 254°
2026-05-07 08:30 -33.92162 151.25537 877 ft 138 kts 253°
2026-05-07 08:30 -33.92463 151.24377 559 ft 150 kts 259°
2026-05-07 08:30 -33.92759 151.23066 680 ft 166 kts 254°
2026-05-07 08:31 -33.93080 151.21845 616 ft 142 kts 254°
2026-05-07 08:31 -33.93340 151.20749 434 ft 133 kts 256°
2026-05-07 08:31 -33.93590 151.19696 209 ft 130 kts 259°
2026-05-07 08:31 -33.93835 151.18661 59 ft 121 kts 258°
2026-05-07 08:32 -33.94001 151.17925 17 ft 34 kts 252°
2026-05-07 08:32 -33.94019 151.17855 17 ft 20 kts 258°
2026-05-07 08:32 -33.93941 151.17790 17 ft 16 kts 347°
2026-05-07 08:32 -33.93902 151.17779 15 ft 4 kts 346°
2026-05-07 08:33 -33.93887 151.17775 15 ft 0 kts 348°
2026-05-07 08:34 -33.93849 151.17780 15 ft 14 kts 37°
2026-05-07 08:35 -33.93815 151.17893 20 ft 15 kts 74°
2026-05-07 08:35 -33.93784 151.18018 25 ft 17 kts 72°
2026-05-07 08:35 -33.93736 151.18227 27 ft 21 kts 75°
2026-05-07 08:35 -33.93707 151.18345 28 ft 23 kts 73°
2026-05-07 08:36 -33.93661 151.18537 26 ft 25 kts 73°
2026-05-07 08:36 -33.93613 151.18746 25 ft 27 kts 76°
2026-05-07 08:36 -33.93541 151.18850 26 ft 16 kts 11°
2026-05-07 08:36 -33.93447 151.18871 25 ft 13 kts 14°
2026-05-07 08:37 -33.93379 151.18897 25 ft 0 kts 21°